FW8640 Weather Reports


Display with metric or nautical units.
time (UTC)temp
F
wind
direction
speed
MPH
gust
MPH
rain 1hr
in
rain 24hr
in
rain mn
in
humidity
%
barometer
mb
20260503004019 52 0.0 1.0 0.00 0.01 0.00 70 1018.5
20260503003018 52 0.0 0.0 0.00 0.01 0.00 70 1018.6
20260503002019 52 0.0 1.0 0.00 0.01 0.00 69 1018.7
20260503001020 53 0.0 2.0 0.00 0.01 0.00 67 1018.8
20260503000019 53 0 1.0 3.0 0.00 0.01 0.00 66 1018.8
20260502235018 53 0 2.0 5.0 0.00 0.01 0.00 66 1018.9
20260502234018 53 0 1.0 4.0 0.00 0.01 0.00 66 1019.0
20260502233018 53 0 2.0 5.0 0.00 0.01 0.00 66 1019.1
20260502232019 52 0 3.0 9.0 0.00 0.01 0.00 68 1019.2
20260502231018 52 0 2.0 5.0 0.00 0.01 0.00 68 1019.2
20260502230019 52 0 2.0 8.0 0.00 0.01 0.00 69 1019.2
20260502225018 52 0 3.0 9.0 0.00 0.01 0.00 70 1019.4
20260502224019 52 0 3.0 10.0 0.00 0.01 0.00 70 1019.7
20260502223040 52 0 4.0 9.0 0.00 0.01 0.00 71 1019.3
20260502222018 52 0 4.0 13.0 0.00 0.01 0.00 73 1019.6
20260502221042 53 0 2.0 9.0 0.00 0.01 0.00 73 1020.1
20260502220017 53 0 3.0 9.0 0.00 0.01 0.00 72 1020.2
20260502215018 54 0 3.0 10.0 0.00 0.02 0.00 71 1020.0
20260502214017 54 0 3.0 11.0 0.00 0.05 0.00 71 1020.0
20260502213017 54 0.0 0.0 0.00 0.06 0.00 71 1020.0
20260502212040 54 0.0 0.0 0.00 0.06 0.00 71 1019.8
20260502211102 54 0.0 1.0 0.00 0.07 0.00 70 1019.9
20260502210019 54 0.0 2.0 0.00 0.07 0.07 70 1020.1
20260502205018 54 0.0 2.0 0.00 0.07 0.07 70 1020.1
20260502204018 54 0 1.0 2.0 0.00 0.07 0.07 69 1020.3
20260502203019 54 0.0 0.0 0.00 0.07 0.07 69 1020.3
20260502202019 54 0.0 2.0 0.00 0.07 0.07 68 1020.4
20260502201020 54 0 1.0 2.0 0.00 0.07 0.07 68 1020.5
20260502200020 54 0.0 2.0 0.00 0.07 0.07 68 1020.6
20260502195019 54 0.0 3.0 0.00 0.07 0.07 68 1020.6
20260502194041 54 0 1.0 4.0 0.00 0.07 0.07 67 1020.7
20260502193018 54 0 3.0 6.0 0.00 0.07 0.07 66 1020.7
20260502192020 54 0 2.0 9.0 0.00 0.07 0.07 65 1020.6
20260502191019 54 0.0 1.0 0.00 0.07 0.07 64 1020.5
20260502190019 55 0.0 2.0 0.00 0.07 0.07 63 1020.2
20260502185020 55 0.0 2.0 0.00 0.07 0.07 62 1020.2
20260502184021 55 0.0 2.0 0.00 0.07 0.07 62 1020.2
20260502183018 56 0.0 2.0 0.00 0.07 0.07 61 1020.0
20260502182020 56 0 1.0 3.0 0.00 0.07 0.07 60 1019.8
20260502181020 57 0 2.0 5.0 0.00 0.07 0.07 59 1019.6
20260502164018 58 0.0 2.0 0.00 0.07 0.07 55 1019.2
20260502163018 58 0.0 2.0 0.00 0.07 0.07 55 1019.0
20260502162020 59 0 3.0 6.0 0.00 0.07 0.07 55 1019.1
20260502161020 59 0 4.0 11.0 0.00 0.07 0.07 55 1019.0
20260502152018 60 0 3.0 10.0 0.01 0.07 0.07 58 1019.3
20260502151018 60 0 2.0 5.0 0.01 0.07 0.07 57 1019.2
20260502123018 63 0 1.0 5.0 0.00 0.07 0.06 42 1020.3
20260502122019 62 0 1.0 4.0 0.00 0.07 0.06 40 1020.2
20260502121018 62 0 2.0 4.0 0.00 0.07 0.06 39 1020.2
20260502115017 64 0 2.0 4.0 0.00 0.07 0.06 37 1020.6
20260502114019 63 0 2.0 6.0 0.00 0.07 0.06 38 1020.6
20260502113041 61 0 3.0 5.0 0.00 0.07 0.06 39 1020.8
20260502112018 63 0 2.0 5.0 0.00 0.07 0.06 39 1021.0
20260502111018 62 0 5.0 10.0 0.00 0.07 0.06 39 1021.0
20260502110017 62 0 2.0 8.0 0.00 0.07 0.06 40 1021.0
20260502105018 63 0 2.0 6.0 0.00 0.07 0.06 39 1021.3
20260502104019 62 0 3.0 10.0 0.00 0.07 0.06 41 1021.5
20260502103017 61 0 2.0 6.0 0.00 0.07 0.06 43 1021.6
20260502102020 61 0 3.0 9.0 0.00 0.07 0.06 42 1021.8
20260502101019 60 0 1.0 3.0 0.00 0.07 0.06 44 1021.8
20260502091019 57 0 4.0 11.0 0.00 0.07 0.06 51 1022.1
20260502071019 56 0 2.0 8.0 0.00 0.07 0.06 63 1023.0
20260502070040 56 0 2.0 5.0 0.00 0.07 0.06 64 1023.0
20260502065042 55 0 2.0 6.0 0.00 0.07 0.06 65 1023.1
20260502064019 55 0 2.0 5.0 0.00 0.07 0.06 69 1023.0
20260502063019 55 0 1.0 2.0 0.00 0.07 0.06 69 1023.1
20260502062019 54 0 1.0 4.0 0.00 0.07 0.06 69 1023.1
20260502061019 54 0 1.0 3.0 0.00 0.07 0.06 69 1023.0
20260502060020 54 0 2.0 5.0 0.00 0.07 0.06 71 1022.9
20260502055042 53 0.0 3.0 0.00 0.07 0.06 72 1022.9
20260502054019 52 0.0 2.0 0.00 0.07 0.06 73 1023.3
20260502053020 52 0 2.0 4.0 0.00 0.07 0.06 74 1023.3
20260502052020 51 0 1.0 4.0 0.00 0.07 0.06 75 1023.2
20260502051021 50 0 2.0 5.0 0.00 0.07 0.06 75 1023.2
20260502050019 50 0 2.0 4.0 0.00 0.07 0.06 76 1023.1
20260502045020 50 0 3.0 5.0 0.00 0.07 0.06 76 1023.1
20260502044020 49 0 2.0 4.0 0.00 0.07 0.06 76 1022.9
20260502043020 49 0 3.0 6.0 0.00 0.07 0.06 76 1022.9
20260502042019 49 0 2.0 4.0 0.00 0.07 0.06 75 1022.7
20260502041020 49 0 3.0 6.0 0.00 0.07 0.06 75 1022.7
20260502040019 50 0 3.0 4.0 0.00 0.07 0.06 74 1022.7
20260502035019 50 0 3.0 6.0 0.00 0.07 0.06 74 1022.7
20260502034020 49 0 3.0 9.0 0.00 0.07 0.06 73 1022.8
20260502033019 49 0 3.0 6.0 0.00 0.07 0.06 74 1022.6
20260502032042 49 0 1.0 4.0 0.00 0.07 0.06 74 1022.6
20260502031019 49 0 1.0 2.0 0.00 0.07 0.06 75 1022.5
20260502030019 50 0 1.0 4.0 0.00 0.07 0.06 75 1022.6
20260502025020 50 0.0 2.0 0.00 0.07 0.06 75 1022.6
20260502024018 50 0 3.0 8.0 0.00 0.07 0.06 76 1022.6
20260502023042 49 0 2.0 6.0 0.00 0.07 0.06 77 1022.6
20260502022019 49 0 4.0 8.0 0.00 0.07 0.06 78 1022.7
20260502021018 49 0 1.0 3.0 0.00 0.07 0.06 78 1022.8
20260502020104 49 0 1.0 3.0 0.00 0.07 0.06 79 1022.8
20260502015019 49 0 1.0 3.0 0.00 0.07 0.06 79 1022.9
20260502014018 50 0 1.0 4.0 0.00 0.07 0.06 80 1023.2
20260502013019 49 0 3.0 6.0 0.00 0.07 0.06 80 1023.2
20260502012020 49 0 1.0 3.0 0.00 0.07 0.06 80 1023.3
20260502011020 50 0.0 1.0 0.00 0.07 0.06 80 1023.4
20260502010018 50 0.0 1.0 0.00 0.07 0.06 80 1023.2
20260502005102 50 0 1.0 3.0 0.00 0.07 0.06 80 1023.3